Simultaneous Nadir Overpasses (SNOs) Predictions

Prediction of SNOs between GOES-15 and NOAA-20 Satellite Orbit:

Table of predicted SNOs for the next 14.0 days since TLE Epoch: 10/15/2022
Index Date Time (GOES-15) GOES-15 Lat,Lon NOAA-20 Lat,Lon Distance(km) Time Diff (sec)
1 10/16/2022 10:05:16 0.22,-128.41 0.67,-130.34 221.47 80
2 10/17/2022 09:49:12 0.22,-128.41 -0.36,-125.82 295.69 80
3 10/18/2022 22:08:28 -0.20,-128.35 -0.83,-131.12 316.12 80
4 10/19/2022 21:52:23 -0.21,-128.36 0.20,-126.59 201.25 80
5 10/21/2022 10:11:32 0.18,-128.44 0.92,-131.87 391.11 80
6 10/22/2022 09:55:26 0.19,-128.44 -0.05,-127.33 125.81 80
7 10/23/2022 22:14:43 -0.17,-128.37 -1.13,-132.64 487.12 80
8 10/24/2022 21:58:37 -0.18,-128.37 -0.15,-128.10 30.02 80
9 10/27/2022 09:59:00 0.17,-128.44 0.29,-128.84 46.68 80
10 10/28/2022 09:42:55 0.18,-128.43 -0.75,-124.32 469.23 80
